Lapse_Rate
4.5 4.9 5.3 5.9 6.1 6.4 6.7 6.9 8.1 8.2 8.5 8.5 8.5 8.3 8.3 8.0 8.1 8.2 8.2 8.2 8.4 8.6
4.0 4.8 5.0 5.4 5.8 6.4 6.4 8.1 8.8 8.3 7.9 8.0 8.1 8.2 8.0 8.1 7.8 7.9 8.1 8.2 8.2 8.3
3.7 4.3 4.9 5.4 5.5 5.7 6.0 6.8 7.4 7.4 7.5 7.4 7.5 7.4 7.5 8.0 7.8 7.6 7.7 8.4 8.2 8.1
2.7 4.2 4.9 5.1 5.1 5.5 6.2 6.3 6.9 7.3 7.1 6.7 6.6 6.9 7.3 7.3 7.4 7.5 7.5 7.5 7.7 8.0
3.8 4.5 4.1 4.8 5.1 6.4 6.9 7.0 7.4 7.4 7.2 6.8 7.2 7.3 8.0 7.6 7.7 7.9 7.7 7.6 7.9 7.9
4.8 4.5 4.3 4.0 5.4 6.1 6.9 7.4 6.9 7.1 7.1 7.1 7.3 7.2 7.2 7.9 7.3 6.9 6.9 7.0 7.4 7.4
4.6 4.4 4.6 5.3 5.7 6.6 6.6 7.8 6.6 6.8 7.5 7.6 7.4 7.2 7.0 7.0 6.6 6.1 6.1 6.0 5.9 6.2
7.0 5.9 4.3 5.3 5.8 6.1 6.3 6.6 7.5 8.1 7.1 6.9 7.4 7.5 7.3 6.5 6.0 5.9 5.6 5.6 5.6 5.9
7.1 7.5 6.9 6.0 5.2 5.1 5.4 6.1 7.5 8.1 7.0 7.0 7.4 8.7 9.1 9.0 7.6 6.8 7.2 6.9 5.5 5.4
7.7 7.7 7.2 7.0 6.4 4.9 4.7 6.2 6.5 6.4 6.7 6.9 7.0 8.7 9.2 9.2 8.1 7.2 7.1 7.2 7.4 6.2
7.7 6.8 6.8 7.0 6.5 5.9 6.1 6.2 6.9 7.3 6.9 6.8 7.2 9.1 9.3 9.1 7.4 7.3 7.3 7.4 7.7 7.1
6.1 6.0 6.6 6.1 6.2 6.2 7.1 7.1 7.3 7.3 7.1 6.5 6.3 8.3 9.1 8.9 7.1 7.1 7.4 7.7 7.7 8.1
6.0 5.9 5.9 6.4 6.5 7.3 7.2 7.6 7.9 7.2 6.3 6.7 7.2 8.3 9.3 8.8 7.3 6.7 7.4 7.6 7.7 8.3
5.8 5.7 6.4 7.1 7.3 7.1 7.3 7.6 6.8 6.4 6.3 6.7 7.5 7.6 9.4 9.2 7.8 7.1 7.1 7.3 7.7 7.8
Wind_Speed
5 3 4 4 4 4 4 4 8 9 10 10 10 10 10 5 6 7 7 10 9 9
5 5 5 6 5 4 5 6 10 10 9 11 11 11 9 7 8 8 9 10 10 10
4 5 5 5 6 6 6 8 7 7 8 8 11 11 8 9 9 10 9 9 11 11
4 5 6 6 6 6 8 8 9 9 9 10 10 10 10 11 12 13 13 13 13 15
6 6 6 6 6 8 10 12 9 9 10 11 12 11 12 13 13 14 15 15 14 16
6 6 7 6 6 7 8 10 10 10 11 12 12 12 13 13 14 15 16 16 16 17
6 7 6 6 6 7 8 9 9 10 11 12 13 14 14 15 16 16 16 18 18 18
6 4 5 6 6 6 6 7 9 12 12 12 12 10 13 14 16 17 18 19 19 18
5 6 6 4 5 5 5 6 9 10 11 13 10 21 25 22 13 12 12 16 16 18
6 5 5 6 7 5 6 7 9 10 11 11 12 23 25 25 13 11 10 14 13 13
5 5 7 8 8 8 8 9 10 10 10 11 11 24 25 25 12 11 12 12 13 12
5 6 8 8 8 9 9 9 9 9 10 11 12 22 23 20 11 9 11 11 11 12
6 6 8 8 9 10 8 10 8 10 10 16 13 20 22 18 8 7 8 9 10 18
8 8 8 8 6 8 9 9 8 10 10 11 10 11 22 21 10 7 7 7 9 8
Wind_Direction
326 310 295 291 299 302 282 281 281 281 278 280 287 288 281 278 273 267 265 267 262 268
310 303 297 309 296 281 287 291 290 299 292 285 281 278 276 275 273 272 272 266 267 270
288 299 297 292 286 289 296 296 291 292 288 287 285 283 280 279 272 268 268 266 264 263
247 258 266 268 278 285 291 294 291 289 288 283 279 276 273 270 270 267 266 263 262 263
235 240 248 257 267 283 287 283 279 284 285 280 278 276 274 271 270 267 265 262 259 259
243 239 244 246 255 262 273 279 280 282 279 277 277 276 273 270 267 264 263 262 259 257
262 252 248 247 248 257 257 274 281 277 277 279 278 273 271 268 264 260 258 256 252 250
276 277 266 267 260 259 260 277 276 282 281 277 275 273 267 259 257 258 258 256 253 249
291 281 276 280 277 278 278 275 279 283 283 284 278 284 291 290 284 282 283 274 249 244
277 285 306 303 301 302 288 286 290 286 283 285 288 294 296 298 300 295 293 292 299 252
303 318 306 305 309 302 292 289 287 287 289 289 288 297 301 301 306 293 294 292 293 277
319 299 303 303 298 290 292 294 289 286 289 290 288 295 302 306 301 288 297 297 298 298
300 296 296 292 288 287 288 288 294 293 290 286 293 295 305 310 303 295 304 305 308 309
299 293 286 281 281 292 286 291 291 292 290 285 288 306 311 314 322 312 305 317 315 310